Time,TemperatureF,DewpointF,PressureIn,WindDirection,WindDirectionDegrees,WindSpeedMPH,WindSpeedGustMPH,Humidity,HourlyPrecipIn,Conditions,Clouds,dailyrainin,SoftwareType,DateUTC
2013-02-18 00:09:00,24.6,21.0,29.99,West,270,0.0,-999.0,86,-99.99,,,0.00,Acu-Link.com,2013-02-18 05:09:00,
2013-02-18 00:24:00,23.5,20.7,29.99,NE,45,0.0,-999.0,89,-99.99,,,0.00,Acu-Link.com,2013-02-18 05:24:00,
2013-02-18 00:39:00,23.5,18.8,30.00,South,180,0.0,-999.0,82,-99.99,,,0.00,Acu-Link.com,2013-02-18 05:39:00,
2013-02-18 00:55:00,23.0,20.0,30.00,SSW,202,0.0,-999.0,88,-99.99,,,0.00,Acu-Link.com,2013-02-18 05:55:00,
2013-02-18 01:10:00,22.3,19.6,30.01,SW,225,0.0,-999.0,89,-99.99,,,0.00,Acu-Link.com,2013-02-18 06:10:00,
2013-02-18 01:25:00,21.4,19.4,30.01,East,90,0.0,-999.0,92,-99.99,,,0.00,Acu-Link.com,2013-02-18 06:25:00,
2013-02-18 01:41:00,20.7,19.5,30.02,SW,225,0.0,-999.0,95,-99.99,,,0.00,Acu-Link.com,2013-02-18 06:41:00,
2013-02-18 01:56:00,21.2,19.0,30.03,SSW,202,0.0,-999.0,91,-99.99,,,0.00,Acu-Link.com,2013-02-18 06:56:00,
2013-02-18 02:11:00,21.0,19.6,30.02,SW,225,0.0,-999.0,94,-99.99,,,0.00,Acu-Link.com,2013-02-18 07:11:00,
2013-02-18 02:26:00,20.1,18.9,30.04,South,180,0.0,-999.0,95,-99.99,,,0.00,Acu-Link.com,2013-02-18 07:26:00,
2013-02-18 02:42:00,19.8,18.1,30.03,ESE,112,0.0,-999.0,93,-99.99,,,0.00,Acu-Link.com,2013-02-18 07:42:00,
2013-02-18 02:57:00,20.3,18.9,30.04,SW,225,0.0,-999.0,94,-99.99,,,0.00,Acu-Link.com,2013-02-18 07:57:00,
2013-02-18 03:12:00,19.9,19.4,30.04,SW,225,0.0,-999.0,98,-99.99,,,0.00,Acu-Link.com,2013-02-18 08:12:00,
2013-02-18 03:28:00,19.8,19.3,30.04,South,180,0.0,-999.0,98,-99.99,,,0.00,Acu-Link.com,2013-02-18 08:28:00,
2013-02-18 03:43:00,19.4,18.9,30.04,SSE,157,0.0,-999.0,98,-99.99,,,0.00,Acu-Link.com,2013-02-18 08:43:00,
2013-02-18 03:58:00,19.2,18.7,30.04,SSW,202,0.0,-999.0,98,-99.99,,,0.00,Acu-Link.com,2013-02-18 08:58:00,
2013-02-18 04:18:00,19.2,18.7,30.04,SW,225,0.0,-999.0,98,-99.99,,,0.00,Acu-Link.com,2013-02-18 09:18:00,
2013-02-18 04:33:00,19.2,18.7,30.05,SSW,202,0.0,-999.0,98,-99.99,,,0.00,Acu-Link.com,2013-02-18 09:33:00,
2013-02-18 04:48:00,19.2,18.7,30.06,SW,225,0.0,-999.0,98,-99.99,,,0.00,Acu-Link.com,2013-02-18 09:48:00,
2013-02-18 05:04:00,18.9,18.4,30.06,SW,225,0.0,-999.0,98,-99.99,,,0.00,Acu-Link.com,2013-02-18 10:04:00,
2013-02-18 05:19:00,18.7,18.2,30.08,SSW,202,0.0,-999.0,98,-99.99,,,0.00,Acu-Link.com,2013-02-18 10:19:00,
2013-02-18 05:35:00,18.7,18.2,30.08,SW,225,0.0,-999.0,98,-99.99,,,0.00,Acu-Link.com,2013-02-18 10:35:00,
2013-02-18 05:50:00,18.3,17.8,30.09,SW,225,0.0,-999.0,98,-99.99,,,0.00,Acu-Link.com,2013-02-18 10:50:00,
2013-02-18 06:05:00,17.2,16.7,30.09,SSE,157,0.0,-999.0,98,-99.99,,,0.00,Acu-Link.com,2013-02-18 11:05:00,
2013-02-18 06:20:00,17.8,17.3,30.09,SW,225,0.0,-999.0,98,-99.99,,,0.00,Acu-Link.com,2013-02-18 11:20:00,
2013-02-18 06:35:00,18.5,18.0,30.09,SSW,202,0.0,-999.0,98,-99.99,,,0.00,Acu-Link.com,2013-02-18 11:35:00,
2013-02-18 06:51:00,18.3,17.8,30.10,SW,225,0.0,-999.0,98,-99.99,,,0.00,Acu-Link.com,2013-02-18 11:51:00,
2013-02-18 07:06:00,18.0,17.5,30.10,West,270,0.0,-999.0,98,-99.99,,,0.00,Acu-Link.com,2013-02-18 12:06:00,
2013-02-18 07:21:00,18.0,17.5,30.11,SW,225,0.0,-999.0,98,-99.99,,,0.00,Acu-Link.com,2013-02-18 12:21:00,
2013-02-18 07:36:00,18.1,17.6,30.10,West,270,0.0,-999.0,98,-99.99,,,0.00,Acu-Link.com,2013-02-18 12:36:00,
2013-02-18 07:51:00,19.2,18.7,30.10,West,270,0.0,-999.0,98,-99.99,,,0.00,Acu-Link.com,2013-02-18 12:51:00,
2013-02-18 08:07:00,20.3,19.8,30.11,NE,45,0.0,-999.0,98,-99.99,,,0.00,Acu-Link.com,2013-02-18 13:07:00,
2013-02-18 08:22:00,21.7,21.2,30.12,WNW,292,0.0,-999.0,98,-99.99,,,0.00,Acu-Link.com,2013-02-18 13:22:00,
2013-02-18 08:37:00,24.6,24.1,30.12,West,270,0.0,-999.0,98,-99.99,,,0.00,Acu-Link.com,2013-02-18 13:37:00,
2013-02-18 08:53:00,29.3,28.8,30.12,NW,315,0.0,-999.0,98,-99.99,,,0.00,Acu-Link.com,2013-02-18 13:53:00,
2013-02-18 09:08:00,33.4,30.8,30.12,West,270,0.0,-999.0,90,-99.99,,,0.00,Acu-Link.com,2013-02-18 14:08:00,
2013-02-18 09:38:00,42.6,42.1,30.13,NE,45,2.2,-999.0,98,-99.99,,,0.00,Acu-Link.com,2013-02-18 14:38:00,
2013-02-18 09:53:00,44.6,44.1,30.11,ESE,112,2.2,-999.0,98,-99.99,,,0.00,Acu-Link.com,2013-02-18 14:53:00,
2013-02-18 10:09:00,45.0,44.5,30.12,SSE,157,3.2,-999.0,98,-99.99,,,0.00,Acu-Link.com,2013-02-18 15:09:00,
2013-02-18 10:24:00,48.4,47.9,30.12,ENE,67,3.7,-999.0,98,-99.99,,,0.00,Acu-Link.com,2013-02-18 15:24:00,
2013-02-18 10:54:00,43.2,42.7,30.11,ESE,112,2.2,-999.0,98,-99.99,,,0.00,Acu-Link.com,2013-02-18 15:54:00,
2013-02-18 11:09:00,43.7,43.2,30.11,South,180,5.8,-999.0,98,-99.99,,,0.00,Acu-Link.com,2013-02-18 16:09:00,
2013-02-18 11:25:00,45.3,44.8,30.11,South,180,2.7,-999.0,98,-99.99,,,0.00,Acu-Link.com,2013-02-18 16:25:00,
2013-02-18 11:40:00,45.0,44.5,30.11,ENE,67,4.2,-999.0,98,-99.99,,,0.00,Acu-Link.com,2013-02-18 16:40:00,
2013-02-18 11:55:00,46.0,45.5,30.10,East,90,4.7,-999.0,98,-99.99,,,0.00,Acu-Link.com,2013-02-18 16:55:00,
2013-02-18 12:10:00,46.6,46.1,30.09,SE,135,3.2,-999.0,98,-99.99,,,0.00,Acu-Link.com,2013-02-18 17:10:00,
2013-02-18 12:26:00,49.5,49.0,30.08,NNW,337,4.7,-999.0,98,-99.99,,,0.00,Acu-Link.com,2013-02-18 17:26:00,
2013-02-18 12:41:00,48.9,48.4,30.08,ESE,112,4.2,-999.0,98,-99.99,,,0.00,Acu-Link.com,2013-02-18 17:41:00,
2013-02-18 12:56:00,48.9,48.4,30.06,WSW,247,1.7,-999.0,98,-99.99,,,0.00,Acu-Link.com,2013-02-18 17:56:00,
2013-02-18 13:11:00,49.1,48.6,30.06,South,180,4.7,-999.0,98,-99.99,,,0.00,Acu-Link.com,2013-02-18 18:11:00,
2013-02-18 13:27:00,49.8,49.3,30.05,ESE,112,4.2,-999.0,98,-99.99,,,0.00,Acu-Link.com,2013-02-18 18:27:00,
2013-02-18 13:57:00,51.4,50.9,30.03,ESE,112,2.7,-999.0,98,-99.99,,,0.00,Acu-Link.com,2013-02-18 18:57:00,
2013-02-18 14:13:00,51.6,51.1,30.02,SE,135,4.7,-999.0,98,-99.99,,,0.00,Acu-Link.com,2013-02-18 19:13:00,
2013-02-18 14:28:00,52.7,52.2,30.02,South,180,6.3,-999.0,98,-99.99,,,0.00,Acu-Link.com,2013-02-18 19:28:00,
2013-02-18 14:43:00,51.6,51.1,30.01,SSE,157,2.2,-999.0,98,-99.99,,,0.00,Acu-Link.com,2013-02-18 19:43:00,
2013-02-18 14:58:00,53.8,53.2,30.00,SSW,202,2.2,-999.0,98,-99.99,,,0.00,Acu-Link.com,2013-02-18 19:58:00,
2013-02-18 15:13:00,52.7,52.2,30.00,SSE,157,4.7,-999.0,98,-99.99,,,0.00,Acu-Link.com,2013-02-18 20:13:00,
2013-02-18 15:29:00,52.7,52.2,29.99,East,90,4.2,-999.0,98,-99.99,,,0.00,Acu-Link.com,2013-02-18 20:29:00,
2013-02-18 15:44:00,52.5,52.0,29.99,ESE,112,3.2,-999.0,98,-99.99,,,0.00,Acu-Link.com,2013-02-18 20:44:00,
2013-02-18 15:59:00,52.5,52.0,29.98,ENE,67,6.3,-999.0,98,-99.99,,,0.00,Acu-Link.com,2013-02-18 20:59:00,
2013-02-18 16:14:00,52.7,52.2,29.98,SSE,157,4.2,-999.0,98,-99.99,,,0.00,Acu-Link.com,2013-02-18 21:14:00,
2013-02-18 16:29:00,51.6,51.1,29.97,ESE,112,3.7,-999.0,98,-99.99,,,0.00,Acu-Link.com,2013-02-18 21:29:00,
2013-02-18 16:44:00,51.3,50.8,29.98,ENE,67,1.7,-999.0,98,-99.99,,,0.00,Acu-Link.com,2013-02-18 21:44:00,
2013-02-18 17:00:00,50.7,50.2,29.99,NE,45,2.2,-999.0,98,-99.99,,,0.00,Acu-Link.com,2013-02-18 22:00:00,
2013-02-18 17:15:00,49.8,49.3,29.99,SE,135,3.7,-999.0,98,-99.99,,,0.00,Acu-Link.com,2013-02-18 22:15:00,
2013-02-18 17:30:00,49.5,49.0,29.98,SE,135,2.2,-999.0,98,-99.99,,,0.00,Acu-Link.com,2013-02-18 22:30:00,
2013-02-18 17:45:00,49.1,48.6,29.99,East,90,2.7,-999.0,98,-99.99,,,0.00,Acu-Link.com,2013-02-18 22:45:00,
2013-02-18 18:01:00,47.8,47.3,29.99,North,0,1.7,-999.0,98,-99.99,,,0.00,Acu-Link.com,2013-02-18 23:01:00,
2013-02-18 18:16:00,46.6,46.1,30.00,ESE,112,1.7,-999.0,98,-99.99,,,0.00,Acu-Link.com,2013-02-18 23:16:00,
2013-02-18 18:31:00,45.7,45.2,29.99,North,0,1.1,-999.0,98,-99.99,,,0.00,Acu-Link.com,2013-02-18 23:31:00,
2013-02-18 18:47:00,44.8,44.0,29.99,ESE,112,4.7,-999.0,97,-99.99,,,0.00,Acu-Link.com,2013-02-18 23:47:00,
2013-02-18 19:02:00,44.1,42.5,29.99,NNE,22,1.7,-999.0,94,-99.99,,,0.00,Acu-Link.com,2013-02-19 00:02:00,
2013-02-18 19:17:00,43.2,41.0,29.99,NNE,22,0.0,-999.0,92,-99.99,,,0.00,Acu-Link.com,2013-02-19 00:17:00,
2013-02-18 19:32:00,42.3,39.0,30.00,East,90,0.0,-999.0,88,-99.99,,,0.00,Acu-Link.com,2013-02-19 00:32:00,
2013-02-18 19:47:00,40.8,38.1,29.99,ENE,67,0.0,-999.0,90,-99.99,,,0.00,Acu-Link.com,2013-02-19 00:47:00,
2013-02-18 20:18:00,39.0,37.7,29.98,NE,45,0.0,-999.0,95,-99.99,,,0.00,Acu-Link.com,2013-02-19 01:18:00,
2013-02-18 20:33:00,38.8,37.5,29.97,NE,45,0.0,-999.0,95,-99.99,,,0.00,Acu-Link.com,2013-02-19 01:33:00,
2013-02-18 20:48:00,38.1,36.8,29.97,NW,315,0.0,-999.0,95,-99.99,,,0.00,Acu-Link.com,2013-02-19 01:48:00,
2013-02-18 21:04:00,37.8,36.5,29.97,South,180,0.0,-999.0,95,-99.99,,,0.00,Acu-Link.com,2013-02-19 02:04:00,
2013-02-18 21:19:00,37.0,36.0,29.95,WNW,292,0.0,-999.0,96,-99.99,,,0.00,Acu-Link.com,2013-02-19 02:19:00,
2013-02-18 21:34:00,36.7,36.2,29.95,ESE,112,0.0,-999.0,98,-99.99,,,0.00,Acu-Link.com,2013-02-19 02:34:00,
2013-02-18 21:50:00,36.1,35.6,29.95,East,90,0.0,-999.0,98,-99.99,,,0.00,Acu-Link.com,2013-02-19 02:50:00,
2013-02-18 22:05:00,35.8,35.3,29.94,West,270,0.0,-999.0,98,-99.99,,,0.00,Acu-Link.com,2013-02-19 03:05:00,
2013-02-18 22:20:00,35.1,34.6,29.95,WSW,247,0.0,-999.0,98,-99.99,,,0.00,Acu-Link.com,2013-02-19 03:20:00,
2013-02-18 22:36:00,34.3,33.8,29.95,NNE,22,0.0,-999.0,98,-99.99,,,0.00,Acu-Link.com,2013-02-19 03:36:00,
2013-02-18 22:51:00,34.7,34.2,29.93,ESE,112,2.7,-999.0,98,-99.99,,,0.00,Acu-Link.com,2013-02-19 03:51:00,
2013-02-18 23:06:00,34.9,34.4,29.92,ESE,112,0.0,-999.0,98,-99.99,,,0.00,Acu-Link.com,2013-02-19 04:06:00,
2013-02-18 23:21:00,34.7,34.2,29.92,ENE,67,0.0,-999.0,98,-99.99,,,0.00,Acu-Link.com,2013-02-19 04:21:00,
2013-02-18 23:37:00,35.2,34.7,29.91,ENE,67,0.0,-999.0,98,-99.99,,,0.00,Acu-Link.com,2013-02-19 04:37:00,